国际通讯卫星 39 星 (INTELSAT 39 (IS-39))

导读

INTELSAT 39是国际通信卫星组织(ITSO)于2019年8月6日发射的地球静止轨道通信卫星,隶属于国际通信卫星集团,运行在地球同步轨道,主要提供C波段通信服务。该卫星已获得印度监管批准,可为印度及南亚次大陆提供广播内容分发、媒体传输连接服务,支撑区域媒体行业发展,同时可将印度内容向全球转发,强化印度洋区域的卫星通信覆盖能力,是Intelsat拓展亚洲市场布局的重要卫星节点。

Basic Information
目录编号:
44476
目录名称:
INTELSAT 39
国际标识:
2019-049B
轨道中心:
EARTH
卫星名称:
国际通讯卫星 39 星
卫星全名:
国际通讯卫星 39 星 (INTELSAT 39 (IS-39))
卫星状态:
在轨 (已飞行2507 天)
发射日期:
2019-08-06 UTC
国别 :
(ITSO)
星等 :
--
Orbit Information
数据来源 国际轨道数据 AOE轨道数据
星历时间 2026-06-17T06:32:04+0800
10小时前
查看轨道信息
2026-06-17T00:00:00+0800
16小时前
查看轨道信息
半长轴 42165.485km 42165.065km
偏心率 0.0000945 0.0000822
轨道倾角 0.001° 0.009°
近地点辐角 318.087° 296.719°
升交点赤经 356.417° 12.801°
平近点角 350.659° 257.355°
近地点 35783.363km 35783.462km
远地点 35791.333km 35790.394km
周期 1436.135分钟 1436.114分钟
每日圈数 1.002691 1.002706
Detailed Information
卫星平台:
LS-1300
平衡模式:
三轴稳定
覆盖范围:
全球
运营商:
国际卫星通信公司
运营商所在国:
美国
制造商(研发单位):
劳拉空间系统公司
制造商所在国:
美国
使用方式:
暂无
Satellite Introduction
从1965年4月至1984年3月,国际通信卫星组织发射了5代、6种不同性能的卫星共计35颗,除6颗卫星因运载火箭和远地点发动机故障而发射失败外,其余29颗卫星均被送到了预定的静止轨道位置。1984年8月前后,国际通信卫星组织利用部署在大西洋、太平洋、印度洋上空的15颗国际通信卫星,为遍布世界各地170多个国家或地区提供电话、电传、电报、电视和数据传输等电信业务;该卫星仍在工作。
2D Orbit Map
3D Orbit Map
Orbit Altitude Analysis Chart
Orbit Inclination Analysis Chart
Orbit Comprehensive Analysis Chart
View Comprehensive Chart